Location: Cahas Mountain Overlook
(37.0833°N, 80.1000°W)
Time: 23:45:03
(UTC-04:00)

UKube-1 - Visible Passes

Search period start: 16 March 2026 00:00
Search period end: 26 March 2026 00:00
Orbit: 528 x 533 km, 98.4° (Epoch: 16 March)

Date Brightness Start Highest point End Pass type
(mag) Time Alt. Az. Time Alt. Az. Time Alt. Az.
16 Mar ? 06:59:06 10° N 07:02:51 53° WNW 07:06:34 10° SSW visible
17 Mar ? 06:48:39 10° N 06:52:29 75° WNW 06:56:18 10° SSW visible
18 Mar ? 06:38:15 10° NNE 06:42:06 77° ESE 06:45:55 10° S visible
19 Mar ? 06:27:54 10° NNE 06:31:41 54° ESE 06:35:25 10° S visible
20 Mar ? 06:17:37 10° NNE 06:21:13 38° E 06:24:47 10° S visible
21 Mar ? 06:07:24 10° NE 06:10:44 28° E 06:14:02 10° SSE visible
22 Mar ? 05:57:17 10° NE 06:00:12 21° E 06:03:06 10° SE visible
23 Mar ? 05:47:21 10° ENE 05:49:38 15° E 05:51:55 10° SE visible
24 Mar ? 05:37:58 10° ENE 05:39:03 11° E 05:40:08 10° ESE visible
